KD4UYR Weather Reports


time (UTC)temp
F
wind
direction
speed
knots
gust
knots
rain 1hr
in
rain 24hr
in
rain mn
in
humidity
%
barometer
mb
20260906105203 67 314 0.0 1.7 0.00 0.00 0.00 99 1015.8
20260906105003 67 0 0.0 0.0 0.00 0.00 0.00 99 1015.7
20260906104805 67 0 0.0 0.0 0.00 0.00 0.00 99 1015.5
20260906104603 67 0 0.0 0.0 0.00 0.00 0.00 99 1015.8
20260906104204 67 0 0.0 0.0 0.00 0.00 0.00 99 1015.8
20260906104003 67 0 0.0 0.0 0.00 0.00 0.00 99 1015.6
20260906103804 67 0 0.0 0.0 0.00 0.00 0.00 99 1015.8
20260906103604 67 0 0.0 0.0 0.00 0.00 0.00 99 1015.7
20260906103403 67 0 0.0 0.0 0.00 0.00 0.00 99 1015.5
20260906103203 67 0 0.0 0.0 0.00 0.00 0.00 99 1015.6
20260906103004 67 0 0.0 0.0 0.00 0.00 0.00 98 1015.6
20260906102803 67 0 0.0 0.0 0.00 0.00 0.00 98 1015.6
20260906102604 67 0 0.0 0.0 0.00 0.00 0.00 98 1015.5
20260906102403 67 0 0.0 0.0 0.00 0.00 0.00 98 1015.6
20260906102203 67 351 0.0 1.7 0.00 0.00 0.00 98 1015.6
20260906102004 67 325 0.9 1.7 0.00 0.00 0.00 98 1015.6
20260906101803 67 322 0.9 1.7 0.00 0.00 0.00 98 1015.5
20260906101603 67 322 0.9 1.7 0.00 0.00 0.00 98 1015.8
20260906101404 67 322 0.9 1.7 0.00 0.00 0.00 98 1015.5
20260906101203 67 314 0.9 1.7 0.00 0.00 0.00 98 1015.6
20260906101004 67 314 0.0 1.7 0.00 0.00 0.00 97 1015.6
20260906100804 67 0 0.0 0.0 0.00 0.00 0.00 97 1015.6
20260906100603 68 1 0.0 0.9 0.00 0.00 0.00 97 1015.7
20260906100204 68 323 0.9 2.6 0.00 0.00 0.00 97 1015.6
20260906100004 68 321 0.9 2.6 0.00 0.00 0.00 97 1015.7
20260906095803 68 321 0.9 2.6 0.00 0.00 0.00 97 1015.6
20260906095604 68 316 0.9 2.6 0.00 0.00 0.00 96 1015.6
20260906095403 68 314 0.9 2.6 0.00 0.00 0.00 96 1015.7
20260906095204 68 314 0.0 2.6 0.00 0.00 0.00 96 1015.6
20260906095004 68 0 0.0 0.0 0.00 0.00 0.00 96 1015.9
20260906094604 68 0 0.0 0.0 0.00 0.00 0.00 96 1015.8
20260906094403 68 0 0.0 0.0 0.00 0.00 0.00 96 1015.7
20260906094203 68 0 0.0 0.0 0.00 0.00 0.00 95 1015.8
20260906094004 68 0 0.0 0.0 0.00 0.00 0.00 95 1015.7
20260906093803 68 0 0.0 0.0 0.00 0.00 0.00 95 1015.7
20260906093603 68 298 0.0 2.6 0.00 0.00 0.00 95 1015.7
20260906093403 68 313 0.9 4.3 0.00 0.00 0.00 95 1015.7
20260906093203 68 328 1.7 4.3 0.00 0.00 0.00 94 1015.7
20260906093004 68 331 1.7 4.3 0.00 0.00 0.00 94 1015.8
20260906092804 68 330 1.7 4.3 0.00 0.00 0.00 94 1015.7
20260906092603 68 333 1.7 4.3 0.00 0.00 0.00 94 1015.8
20260906092404 68 323 1.7 4.3 0.00 0.00 0.00 93 1015.7
20260906092203 68 269 0.9 4.3 0.00 0.00 0.00 93 1015.9
20260906092004 68 246 1.7 4.3 0.00 0.00 0.00 93 1016.0
20260906091604 68 233 1.7 4.3 0.00 0.00 0.00 93 1015.7
20260906091403 68 220 0.9 4.3 0.00 0.00 0.00 93 1015.8
20260906091204 69 218 0.9 4.3 0.00 0.00 0.00 93 1015.7
20260906090803 69 208 0.9 2.6 0.00 0.00 0.00 93 1015.7
20260906090404 69 207 2.6 6.1 0.00 0.00 0.00 93 1015.7
20260906090003 69 176 2.6 6.1 0.00 0.00 0.00 94 1015.5
20260906085804 69 316 2.6 6.1 0.00 0.00 0.00 95 1015.5
20260906085403 69 318 4.3 10.4 0.00 0.00 0.00 97 1015.4
20260906085204 69 323 5.2 10.4 0.00 0.00 0.00 98 1015.7
20260906085004 69 314 6.1 12.2 0.00 0.00 0.00 98 1015.7
20260906084803 68 313 5.2 12.2 0.00 0.00 0.00 99 1015.7
20260906084204 67 317 1.7 12.2 0.00 0.00 0.00 98 1015.7
20260906084004 67 314 0.0 5.2 0.00 0.00 0.00 98 1015.7
20260906083804 67 0 0.0 0.0 0.00 0.00 0.00 98 1015.7
20260906083603 67 0 0.0 0.0 0.00 0.00 0.00 98 1015.5
20260906083404 67 0 0.0 0.0 0.00 0.00 0.00 98 1015.7
20260906083204 67 0 0.0 0.0 0.00 0.00 0.00 98 1015.6
20260906083003 67 0 0.0 0.0 0.00 0.00 0.00 97 1015.6
20260906082803 67 0 0.0 0.0 0.00 0.00 0.00 97 1015.7
20260906082604 67 0 0.0 0.0 0.00 0.00 0.00 97 1015.6
20260906082203 67 0 0.0 0.0 0.00 0.00 0.00 97 1015.6
20260906081803 67 0 0.0 0.0 0.00 0.00 0.00 97 1015.7
20260906081603 67 0 0.0 0.0 0.00 0.00 0.00 96 1015.6
20260906081203 67 0 0.0 0.0 0.00 0.00 0.00 96 1015.3
20260906081004 67 0 0.0 0.0 0.00 0.00 0.00 96 1015.3
20260906080804 67 0 0.0 0.0 0.00 0.00 0.00 96 1015.4
20260906080603 67 0 0.0 0.0 0.00 0.00 0.00 96 1015.3
20260906080404 67 0 0.0 0.0 0.00 0.00 0.00 96 1015.2
20260906080204 67 0 0.0 0.0 0.00 0.00 0.00 96 1015.3
20260906080003 67 0 0.0 0.0 0.00 0.00 0.00 96 1015.3
20260906075804 67 0 0.0 0.0 0.00 0.00 0.00 96 1015.5
20260906075004 67 0 0.0 0.0 0.00 0.00 0.00 96 1015.4
20260906074803 67 0 0.0 0.0 0.00 0.00 0.00 96 1015.4
20260906074603 67 0 0.0 0.0 0.00 0.00 0.00 96 1015.5
20260906074003 67 0 0.0 0.0 0.00 0.00 0.00 96 1015.5
20260906073804 67 0 0.0 0.0 0.00 0.00 0.00 96 1015.7
20260906073604 67 0 0.0 0.0 0.00 0.00 0.00 96 1015.3
20260906073204 67 0 0.0 0.0 0.00 0.00 0.00 97 1015.3
20260906073004 67 314 0.0 1.7 0.00 0.00 0.00 97 1015.3
20260906072803 67 314 0.9 2.6 0.00 0.00 0.00 96 1015.4
20260906072604 67 314 0.9 2.6 0.00 0.00 0.00 96 1015.4
20260906072403 67 314 0.9 2.6 0.00 0.00 0.00 96 1015.5
20260906072203 67 314 0.9 2.6 0.00 0.00 0.00 96 1015.4
20260906072004 67 314 0.9 2.6 0.00 0.00 0.00 96 1015.5
20260906071603 67 0 0.0 0.0 0.00 0.00 0.00 96 1015.5
20260906071404 67 0 0.0 0.0 0.00 0.00 0.00 96 1015.4
20260906071004 67 314 0.0 0.9 0.00 0.00 0.00 96 1015.3
20260906070804 67 314 0.0 1.7 0.00 0.00 0.00 96 1015.3
20260906070603 67 314 0.0 1.7 0.00 0.00 0.00 96 1015.4
20260906070404 67 324 0.9 1.7 0.00 0.00 0.00 96 1015.5
20260906070203 67 339 0.9 2.6 0.00 0.00 0.00 96 1015.6
20260906065804 67 330 1.7 2.6 0.00 0.00 0.00 96 1015.6
20260906065603 67 332 1.7 2.6 0.00 0.00 0.00 96 1015.9
20260906065404 67 330 0.9 2.6 0.00 0.00 0.00 96 1015.8
20260906065003 68 314 0.9 2.6 0.00 0.00 0.00 96 1015.8
20260906064603 68 0 0.0 0.0 0.00 0.00 0.00 96 1015.9
20260906064204 68 0 0.0 0.0 0.00 0.00 0.00 96 1015.9
20260906064003 68 0 0.0 0.0 0.00 0.00 0.00 96 1015.6
20260906063804 68 0 0.0 0.0 0.00 0.00 0.00 96 1015.7
20260906063603 68 0 0.0 0.0 0.00 0.00 0.00 96 1015.8
20260906063403 68 0 0.0 0.0 0.00 0.00 0.00 96 1015.5
20260906063204 68 0 0.0 0.0 0.00 0.00 0.00 96 1015.6
20260906063003 68 0 0.0 0.0 0.00 0.00 0.00 96 1015.5
20260906062804 68 0 0.0 0.0 0.00 0.00 0.00 96 1015.5
20260906062604 68 0 0.0 0.0 0.00 0.00 0.00 96 1015.6
20260906062404 68 0 0.0 0.0 0.00 0.00 0.00 96 1015.5
20260906062204 68 0 0.0 0.0 0.00 0.00 0.00 96 1015.7
20260906062003 68 0 0.0 0.0 0.00 0.00 0.00 96 1015.7
20260906061603 68 0 0.0 0.0 0.00 0.00 0.00 96 1015.8
20260906061404 67 0 0.0 0.0 0.00 0.00 0.00 96 1015.8
20260906061204 67 0 0.0 0.0 0.00 0.00 0.00 96 1015.7
20260906061003 67 0 0.0 0.0 0.00 0.00 0.00 96 1015.8
20260906060804 67 0 0.0 0.0 0.00 0.00 0.00 96 1015.7
20260906060603 67 0 0.0 0.0 0.00 0.00 0.00 96 1015.9
20260906060403 67 0 0.0 0.0 0.00 0.00 0.00 96 1015.7
20260906060204 67 0 0.0 0.0 0.00 0.00 0.00 96 1015.9
20260906055804 67 301 0.9 2.6 0.00 0.00 0.00 96 1015.8
20260906055603 67 305 0.9 2.6 0.00 0.00 0.00 96 1015.9
20260906055403 67 302 1.7 2.6 0.00 0.00 0.00 96 1016.0
20260906055204 67 302 1.7 2.6 0.00 0.00 0.00 96 1016.0
20260906055003 67 303 1.7 2.6 0.00 0.00 0.00 96 1016.1
20260906054603 67 305 1.7 2.6 0.00 0.00 0.00 95 1016.1
20260906054403 67 326 0.9 2.6 0.00 0.00 0.00 95 1016.2
20260906054204 67 340 0.9 2.6 0.00 0.00 0.00 95 1016.1
20260906054004 67 1 0.9 1.7 0.00 0.00 0.00 95 1016.2
20260906053803 67 357 0.9 1.7 0.00 0.00 0.00 95 1016.2
20260906053604 67 345 0.9 1.7 0.00 0.00 0.00 95 1016.2
20260906053403 67 322 0.9 1.7 0.00 0.00 0.00 95 1016.2
20260906053204 67 319 0.9 1.7 0.00 0.00 0.00 95 1016.1
20260906053004 68 319 0.9 1.7 0.00 0.00 0.00 94 1016.2
20260906052803 68 322 0.0 1.7 0.00 0.00 0.00 94 1016.2
20260906052604 68 312 0.9 2.6 0.00 0.00 0.00 94 1016.0
20260906052403 68 295 0.9 2.6 0.00 0.00 0.00 94 1016.2
20260906052203 68 295 0.9 2.6 0.00 0.00 0.00 94 1016.2
20260906051803 68 294 0.9 2.6 0.00 0.00 0.00 93 1016.2
20260906051003 68 314 0.0 1.7 0.00 0.00 0.00 92 1016.5
20260906050803 68 288 0.9 2.6 0.00 0.00 0.00 92 1016.5
20260906050403 68 267 0.9 2.6 0.00 0.00 0.00 91 1016.4
20260906050204 68 277 0.9 2.6 0.00 0.00 0.00 91 1016.5
20260906050004 68 286 1.7 2.6 0.00 0.00 0.00 91 1016.5
20260906045803 68 338 1.7 2.6 0.00 0.00 0.00 91 1016.5
20260906045604 68 68 1.7 2.6 0.00 0.00 0.00 90 1016.4
20260906045403 68 51 1.7 2.6 0.00 0.00 0.00 90 1016.4
20260906045204 69 74 0.9 2.6 0.00 0.00 0.00 90 1016.4
20260906045003 69 88 0.9 2.6 0.00 0.00 0.00 90 1016.5
20260906044803 69 46 0.9 2.6 0.00 0.00 0.00 90 1016.5
20260906044004 69 286 0.9 2.6 0.00 0.00 0.00 90 1016.3
20260906043804 69 282 0.9 2.6 0.00 0.00 0.00 89 1016.4
20260906043603 69 293 0.9 2.6 0.00 0.00 0.00 89 1016.2
20260906043404 69 301 0.0 1.7 0.00 0.00 0.00 89 1016.3
20260906043203 69 270 0.0 1.7 0.00 0.00 0.00 89 1016.3
20260906043004 69 270 0.9 1.7 0.00 0.00 0.00 89 1016.3
20260906042804 69 270 0.9 1.7 0.00 0.00 0.00 90 1016.4
20260906042603 69 280 0.9 1.7 0.00 0.00 0.00 90 1016.3
20260906042404 69 286 0.9 1.7 0.00 0.00 0.00 90 1016.3
20260906042204 69 320 0.9 1.7 0.00 0.00 0.00 91 1016.3
20260906042003 69 342 0.9 1.7 0.00 0.00 0.00 91 1016.3
20260906041804 69 333 0.9 1.7 0.00 0.00 0.00 91 1016.4
20260906041603 69 326 0.9 1.7 0.00 0.00 0.00 91 1016.5
20260906041403 69 322 1.7 1.7 0.00 0.00 0.00 91 1016.5
20260906041204 69 317 1.7 1.7 0.00 0.00 0.00 91 1016.5
20260906041003 69 315 0.9 1.7 0.00 0.00 0.00 91 1016.6
20260906040804 69 320 0.9 1.7 0.00 0.00 0.00 91 1016.5
20260906040403 69 325 0.9 1.7 0.00 0.00 0.00 91 1016.6
20260906040204 69 325 0.9 1.7 0.00 0.00 0.00 91 1016.6
20260906040004 69 322 1.7 1.7 0.00 0.00 0.00 91 1016.4
20260906035803 69 319 1.7 2.6 0.00 0.00 0.00 91 1016.4
20260906035604 69 315 1.7 2.6 0.00 0.00 0.00 91 1016.5
20260906035403 69 314 0.9 2.6 0.00 0.00 0.00 91 1016.6
20260906035003 69 300 0.9 2.6 0.00 0.00 0.00 90 1016.6
20260906034804 69 293 0.9 1.7 0.00 0.00 0.00 90 1016.4
20260906034603 69 293 0.9 1.7 0.00 0.00 0.00 90 1016.5
20260906034403 69 290 0.9 1.7 0.00 0.00 0.00 90 1016.6
20260906034204 69 273 0.0 1.7 0.00 0.00 0.00 90 1016.4
20260906034003 69 0 0.0 0.0 0.00 0.00 0.00 89 1016.4
20260906033803 69 225 0.0 1.7 0.00 0.00 0.00 89 1016.4
20260906033604 69 237 0.9 1.7 0.00 0.00 0.00 89 1016.5
20260906033403 69 250 0.9 1.7 0.00 0.00 0.00 89 1016.4
20260906033204 69 250 0.9 1.7 0.00 0.00 0.00 89 1016.4
20260906033003 70 250 0.9 1.7 0.00 0.00 0.00 89 1016.6
20260906032803 70 255 0.9 1.7 0.00 0.00 0.00 88 1016.7
20260906032403 70 314 0.0 1.7 0.00 0.00 0.00 88 1016.6
20260906032203 70 314 0.9 1.7 0.00 0.00 0.00 88 1016.5
20260906032004 70 315 0.9 1.7 0.00 0.00 0.00 88 1016.5
20260906031803 70 314 0.9 1.7 0.00 0.00 0.00 88 1016.4
20260906031603 70 314 1.7 1.7 0.00 0.00 0.00 89 1016.4
20260906031403 70 311 1.7 1.7 0.00 0.00 0.00 89 1016.5
20260906031203 69 315 0.9 1.7 0.00 0.00 0.00 89 1016.5
20260906031004 69 321 0.9 1.7 0.00 0.00 0.00 89 1016.6
20260906030603 69 338 0.9 1.7 0.00 0.00 0.00 90 1016.4
20260906030403 69 340 0.9 1.7 0.00 0.00 0.00 90 1016.6
20260906030203 69 330 1.7 2.6 0.00 0.00 0.00 90 1016.6
20260906030004 69 319 1.7 2.6 0.00 0.00 0.00 90 1016.5
20260906025803 69 314 1.7 2.6 0.00 0.00 0.00 90 1016.4
20260906025603 69 311 2.6 2.6 0.00 0.00 0.00 90 1016.6
20260906025403 69 311 2.6 2.6 0.00 0.00 0.00 91 1016.4
20260906025203 70 311 2.6 4.3 0.00 0.00 0.00 91 1016.4
20260906024404 70 321 1.7 4.3 0.00 0.00 0.00 91 1016.5
20260906024203 70 324 1.7 2.6 0.00 0.00 0.00 91 1016.5
20260906024004 70 329 0.9 2.6 0.00 0.00 0.00 91 1016.6
20260906023804 70 340 0.9 2.6 0.00 0.00 0.00 91 1016.6
20260906023603 70 346 0.0 1.7 0.00 0.00 0.00 91 1016.7
20260906023404 70 0 0.0 0.0 0.00 0.00 0.00 91 1016.6
20260906023203 70 0 0.0 0.0 0.00 0.00 0.00 91 1016.8
20260906023004 70 314 0.0 1.7 0.00 0.00 0.00 92 1016.6
20260906022404 69 282 1.7 2.6 0.00 0.00 0.00 92 1016.4
20260906022203 69 280 1.7 2.6 0.00 0.00 0.00 92 1016.2
20260906022004 69 273 1.7 2.6 0.00 0.00 0.00 92 1016.2
20260906021603 69 293 1.7 2.6 0.00 0.00 0.00 92 1016.2
20260906021404 70 307 1.7 2.6 0.00 0.00 0.00 92 1016.2
20260906021004 70 316 2.6 2.6 0.00 0.00 0.00 91 1016.3
20260906020803 70 319 2.6 2.6 0.00 0.00 0.00 91 1016.4
20260906020603 70 322 2.6 2.6 0.00 0.00 0.00 91 1016.4
20260906020404 70 322 1.7 2.6 0.00 0.00 0.00 91 1016.3
20260906020203 70 322 1.7 2.6 0.00 0.00 0.00 90 1016.3
20260906020004 70 323 1.7 2.6 0.00 0.00 0.00 90 1016.4
20260906015803 70 319 1.7 2.6 0.00 0.00 0.00 90 1016.4
20260906015403 70 314 0.9 1.7 0.00 0.00 0.00 90 1016.3
20260906015203 70 314 0.9 1.7 0.00 0.00 0.00 90 1016.0
20260906014803 70 314 0.9 1.7 0.00 0.00 0.00 89 1016.1
20260906014603 70 337 0.9 1.7 0.00 0.00 0.00 89 1016.0
20260906014404 70 1 0.0 1.7 0.00 0.00 0.00 89 1016.0
20260906014204 70 1 0.9 1.7 0.00 0.00 0.00 89 1016.0
20260906014003 70 1 0.9 1.7 0.00 0.00 0.00 86 1016.1
20260906013804 70 358 0.9 1.7 0.00 0.00 0.00 85 1015.8
20260906013404 70 316 0.0 1.7 0.00 0.00 0.00 85 1016.1
20260906013203 70 307 0.9 1.7 0.00 0.00 0.00 85 1015.8
20260906013003 71 301 0.9 1.7 0.00 0.00 0.00 85 1016.0
20260906012804 71 301 0.9 1.7 0.00 0.00 0.00 84 1015.9
20260906012603 71 293 0.9 1.7 0.00 0.00 0.00 84 1015.8
20260906012404 71 289 0.9 1.7 0.00 0.00 0.00 83 1015.8
20260906012203 71 293 0.0 1.7 0.00 0.00 0.00 83 1015.8
20260906012003 71 314 0.0 0.9 0.00 0.00 0.00 83 1015.7
20260906011804 71 314 0.0 0.9 0.00 0.00 0.00 83 1015.8
20260906011403 71 314 0.0 1.7 0.00 0.00 0.00 83 1015.8
20260906011204 71 314 0.0 1.7 0.00 0.00 0.00 83 1015.5
20260906010804 71 314 0.0 1.7 0.00 0.00 0.00 82 1015.7
20260906010603 71 314 0.0 1.7 0.00 0.00 0.00 82 1015.8
20260906010204 72 314 0.0 1.7 0.00 0.00 0.00 82 1015.6
20260906010004 72 314 0.9 2.6 0.00 0.00 0.00 82 1015.7
20260906005603 72 314 0.9 2.6 0.00 0.00 0.00 82 1015.5
20260906005404 72 315 0.9 2.6 0.00 0.00 0.00 82 1015.5
20260906005203 72 331 0.9 2.6 0.00 0.00 0.00 82 1015.4
20260906005003 72 355 0.0 2.6 0.00 0.00 0.00 82 1015.4
20260906004603 72 1 0.0 1.7 0.00 0.00 0.00 82 1015.4
20260906004403 72 1 0.0 1.7 0.00 0.00 0.00 82 1015.4
20260906004203 72 1 0.0 1.7 0.00 0.00 0.00 82 1015.3
20260906004003 72 0 0.0 0.0 0.00 0.00 0.00 82 1015.4
20260906003804 72 314 0.0 0.9 0.00 0.00 0.00 81 1015.4
20260906003604 72 340 0.0 0.9 0.00 0.00 0.00 81 1015.4
20260906003403 72 339 0.0 0.9 0.00 0.00 0.00 81 1015.5
20260906003203 72 342 0.0 0.9 0.00 0.00 0.00 81 1015.3
20260906003004 72 342 0.0 0.9 0.00 0.00 0.00 81 1015.5
20260906002803 72 343 0.0 0.9 0.00 0.00 0.00 81 1015.6
20260906002603 73 344 0.0 0.9 0.00 0.00 0.00 81 1015.6
20260906002403 73 1 0.0 0.9 0.00 0.00 0.00 81 1015.4
20260906002203 73 0 0.0 0.0 0.00 0.00 0.00 81 1015.6
20260906002004 73 0 0.0 0.0 0.00 0.00 0.00 80 1015.7
20260906001804 73 0 0.0 0.0 0.00 0.00 0.00 80 1015.6
20260906001203 73 337 0.0 1.7 0.00 0.00 0.00 81 1015.5
20260906001004 74 328 0.0 1.7 0.00 0.00 0.00 81 1015.7
20260906000803 74 324 0.9 1.7 0.00 0.00 0.00 81 1015.6
20260906000603 74 301 0.9 1.7 0.00 0.00 0.00 81 1015.6
20260906000404 74 293 0.9 1.7 0.00 0.00 0.00 80 1015.7
20260905235803 74 270 0.9 1.7 0.00 0.00 0.00 80 1015.7
20260905235604 74 270 0.0 1.7 0.00 0.00 0.00 80 1015.8
20260905235403 74 270 0.0 1.7 0.00 0.00 0.00 80 1015.9
20260905235204 74 270 0.0 1.7 0.00 0.00 0.00 80 1015.8
20260905235004 74 270 0.0 1.7 0.00 0.00 0.00 80 1015.8
20260905234804 75 270 0.0 1.7 0.00 0.00 0.00 80 1015.4
20260905234604 75 270 0.0 1.7 0.00 0.00 0.00 80 1015.5
20260905234203 75 0 0.0 0.0 0.00 0.00 0.00 80 1015.3
20260905234004 75 1 0.0 1.7 0.00 0.00 0.00 80 1015.4
20260905233803 75 1 0.9 1.7 0.00 0.00 0.00 80 1015.4
20260905233603 75 1 0.9 1.7 0.00 0.00 0.00 79 1015.4
20260905233203 76 1 0.9 1.7 0.00 0.00 0.00 79 1015.4
20260905233003 76 1 0.0 1.7 0.00 0.00 0.00 79 1015.4
20260905232804 76 1 0.0 1.7 0.00 0.00 0.00 78 1015.3
20260905232603 76 0 0.0 0.0 0.00 0.00 0.00 78 1015.3
20260905232403 76 0 0.0 0.0 0.00 0.00 0.00 77 1015.4
20260905232204 76 1 0.0 1.7 0.00 0.00 0.00 77 1015.4
20260905232003 76 1 0.9 1.7 0.00 0.00 0.00 77 1015.4
20260905231604 76 354 0.9 1.7 0.00 0.00 0.00 76 1015.4
20260905231403 76 354 0.9 1.7 0.00 0.00 0.00 76 1015.3
20260905231203 76 353 0.9 1.7 0.00 0.00 0.00 76 1015.3
20260905230803 77 1 0.0 1.7 0.00 0.00 0.00 75 1015.2
20260905230203 77 0 0.0 0.0 0.00 0.00 0.00 74 1015.4
20260905230004 77 0 0.0 0.0 0.00 0.00 0.00 74 1015.5
20260905225803 77 0 0.0 0.0 0.00 0.00 0.00 74 1015.6
20260905225403 77 0 0.0 0.0 0.00 0.00 0.00 73 1015.5
20260905225203 77 0 0.0 0.0 0.00 0.00 0.00 73 1015.4
20260905225004 78 1 0.0 0.9 0.00 0.00 0.00 72 1015.4
20260905224803 78 1 0.0 0.9 0.00 0.00 0.00 72 1015.4
20260905224603 78 1 0.0 0.9 0.00 0.00 0.00 72 1015.4
20260905224404 78 1 0.0 0.9 0.00 0.00 0.00 72 1015.4
20260905224203 78 336 0.0 0.9 0.00 0.00 0.00 72 1015.4
20260905224004 78 311 0.0 0.9 0.00 0.00 0.00 72 1015.4
20260905223803 78 90 0.0 1.7 0.00 0.00 0.00 72 1015.3
20260905223403 78 117 0.9 1.7 0.00 0.00 0.00 72 1015.4
20260905223203 78 114 0.9 1.7 0.00 0.00 0.00 72 1015.3
20260905223004 78 113 0.9 1.7 0.00 0.00 0.00 71 1015.2
20260905222803 79 122 0.9 1.7 0.00 0.00 0.00 71 1015.2
20260905222604 79 135 0.0 1.7 0.00 0.00 0.00 71 1015.4
20260905222203 80 80 0.0 2.6 0.00 0.00 0.00 67 1015.3
20260905222004 80 87 0.9 2.6 0.00 0.00 0.00 67 1015.4
20260905221803 80 88 0.9 2.6 0.00 0.00 0.00 67 1015.3
20260905221603 80 86 1.7 2.6 0.00 0.00 0.00 67 1015.4
20260905221403 80 87 1.7 2.6 0.00 0.00 0.00 67 1015.4
20260905221203 81 87 1.7 2.6 0.00 0.00 0.00 66 1015.4
20260905221004 81 74 1.7 2.6 0.00 0.00 0.00 65 1015.5
20260905220604 81 59 1.7 2.6 0.00 0.00 0.00 64 1015.4
20260905220403 81 37 1.7 2.6 0.00 0.00 0.00 63 1015.4
20260905220203 81 3 1.7 2.6 0.00 0.00 0.00 63 1015.5
20260905220004 81 318 0.9 2.6 0.00 0.00 0.00 63 1015.5
20260905215603 82 309 0.9 2.6 0.00 0.00 0.00 62 1015.6
20260905215203 83 87 1.7 2.6 0.00 0.00 0.00 60 1015.6
20260905215004 83 88 1.7 2.6 0.00 0.00 0.00 60 1015.4
20260905214603 83 69 1.7 2.6 0.00 0.00 0.00 60 1015.3
20260905214403 83 60 1.7 4.3 0.00 0.00 0.00 60 1015.4
20260905214203 83 62 1.7 4.3 0.00 0.00 0.00 60 1015.4
20260905214004 83 65 1.7 4.3 0.00 0.00 0.00 60 1015.5
20260905213803 83 70 2.6 4.3 0.00 0.00 0.00 60 1015.3
20260905213603 83 79 2.6 4.3 0.00 0.00 0.00 60 1015.6
20260905213403 83 84 2.6 4.3 0.00 0.00 0.00 61 1015.7
20260905213203 83 85 2.6 4.3 0.00 0.00 0.00 62 1015.7
20260905213004 83 90 1.7 4.3 0.00 0.00 0.00 62 1015.7
20260905212803 83 87 1.7 4.3 0.00 0.00 0.00 62 1015.6
20260905212603 82 74 1.7 4.3 0.00 0.00 0.00 62 1015.7
20260905212403 82 68 1.7 1.7 0.00 0.00 0.00 63 1015.5
20260905212203 81 68 1.7 4.3 0.00 0.00 0.00 64 1015.7
20260905211403 80 79 1.7 4.3 0.00 0.00 0.00 68 1015.9
20260905211203 80 73 0.9 4.3 0.00 0.00 0.00 67 1016.1
20260905211003 80 70 0.9 1.7 0.00 0.00 0.00 69 1016.1
20260905210803 79 53 0.0 1.7 0.00 0.00 0.00 71 1016.1
20260905210603 79 181 0.0 0.9 0.00 0.00 0.00 71 1016.2
20260905210403 79 181 0.0 0.9 0.00 0.00 0.00 71 1016.1
20260905210203 79 181 0.0 0.9 0.00 0.00 0.00 71 1015.9
20260905210004 80 181 0.0 0.9 0.00 0.00 0.00 66 1016.1
20260905205603 80 6 0.9 2.6 0.00 0.00 0.00 65 1015.8
20260905205403 80 353 0.9 2.6 0.00 0.00 0.00 64 1016.0
20260905205003 81 353 0.9 2.6 0.00 0.00 0.00 62 1015.8
20260905204803 81 346 0.9 2.6 0.00 0.00 0.00 62 1015.9
20260905204603 81 338 0.9 2.6 0.00 0.00 0.00 61 1015.9
20260905204403 81 1 0.9 2.6 0.00 0.00 0.00 61 1015.9
20260905204203 81 354 0.9 4.3 0.00 0.00 0.00 60 1015.7
20260905204004 82 6 0.9 4.3 0.00 0.00 0.00 60 1015.7
20260905203404 82 37 1.7 4.3 0.00 0.00 0.00 60 1015.8
20260905203203 83 56 1.7 2.6 0.00 0.00 0.00 60 1015.9
20260905203004 83 60 1.7 5.2 0.00 0.00 0.00 60 1015.7
20260905202803 83 55 1.7 5.2 0.00 0.00 0.00 58 1015.7
20260905202603 83 49 1.7 5.2 0.00 0.00 0.00 57 1015.6
20260905202404 84 49 2.6 5.2 0.00 0.00 0.00 57 1015.6
20260905202203 84 46 2.6 5.2 0.00 0.00 0.00 57 1015.7
20260905201803 85 29 1.7 2.6 0.00 0.00 0.00 56 1015.7
20260905201404 86 25 1.7 2.6 0.00 0.00 0.00 54 1016.1
20260905201004 86 62 1.7 4.3 0.00 0.00 0.00 52 1016.0
20260905200803 87 81 1.7 4.3 0.00 0.00 0.00 51 1015.9
20260905200603 87 92 1.7 4.3 0.00 0.00 0.00 50 1016.1
20260905200404 88 92 2.6 4.3 0.00 0.00 0.00 50 1016.3
20260905200003 89 90 2.6 4.3 0.00 0.00 0.00 45 1016.4
20260905195803 90 90 2.6 4.3 0.00 0.00 0.00 44 1016.5
20260905195604 91 90 2.6 4.3 0.00 0.00 0.00 41 1016.3
20260905195403 92 90 2.6 5.2 0.00 0.00 0.00 41 1016.4
20260905195203 93 92 3.5 5.2 0.00 0.00 0.00 41 1016.4
20260905195004 94 93 3.5 5.2 0.00 0.00 0.00 40 1016.5
20260905194803 95 88 2.6 5.2 0.00 0.00 0.00 40 1016.5
20260905194603 95 69 2.6 5.2 0.00 0.00 0.00 40 1016.5
20260905194404 96 30 2.6 5.2 0.00 0.00 0.00 40 1016.4
20260905194203 96 37 2.6 6.1 0.00 0.00 0.00 40 1016.2
20260905194004 96 50 3.5 6.1 0.00 0.00 0.00 40 1016.3
20260905193803 96 68 3.5 6.1 0.00 0.00 0.00 38 1016.5
20260905193603 97 81 3.5 6.1 0.00 0.00 0.00 38 1016.3
20260905193403 97 84 3.5 6.1 0.00 0.00 0.00 40 1016.5
20260905193203 98 72 3.5 6.1 0.00 0.00 0.00 35 1016.2
20260905193004 98 65 3.5 6.1 0.00 0.00 0.00 35 1016.2
20260905192803 98 44 2.6 4.3 0.00 0.00 0.00 35 1016.1
20260905192603 98 12 2.6 5.2 0.00 0.00 0.00 35 1016.2
20260905192403 98 354 2.6 5.2 0.00 0.00 0.00 34 1015.9
20260905192203 97 342 2.6 5.2 0.00 0.00 0.00 38 1015.9
20260905192004 97 344 2.6 5.2 0.00 0.00 0.00 40 1016.1
20260905191803 96 351 2.6 5.2 0.00 0.00 0.00 40 1016.2
20260905191603 95 35 2.6 4.3 0.00 0.00 0.00 40 1016.3
20260905191204 94 80 2.6 4.3 0.00 0.00 0.00 41 1016.5
20260905191003 94 76 2.6 4.3 0.00 0.00 0.00 41 1016.5
20260905190804 93 72 2.6 5.2 0.00 0.00 0.00 40 1016.7
20260905190603 94 72 2.6 7.0 0.00 0.00 0.00 40 1016.6
20260905190403 95 78 3.5 7.0 0.00 0.00 0.00 38 1016.7
20260905190004 97 88 5.2 8.7 0.00 0.00 0.00 37 1016.8
20260905185803 98 90 6.1 9.6 0.00 0.00 0.00 33 1016.9
20260905185603 98 90 6.1 9.6 0.00 0.00 0.00 33 1017.0
20260905185403 98 89 6.1 9.6 0.00 0.00 0.00 34 1016.9
20260905185203 99 80 5.2 9.6 0.00 0.00 0.00 33 1017.0
20260905185004 99 73 5.2 9.6 0.00 0.00 0.00 35 1016.8
20260905184803 99 68 4.3 9.6 0.00 0.00 0.00 37 1016.7
20260905184603 99 53 4.3 7.0 0.00 0.00 0.00 38 1016.6
20260905184404 98 57 4.3 7.0 0.00 0.00 0.00 37 1016.5
20260905184204 98 65 4.3 7.0 0.00 0.00 0.00 37 1016.4
20260905184003 98 68 4.3 7.0 0.00 0.00 0.00 35 1016.3
20260905183804 99 66 4.3 7.0 0.00 0.00 0.00 35 1016.3
20260905183603 99 69 3.5 7.0 0.00 0.00 0.00 36 1016.4
20260905183403 99 52 3.5 7.0 0.00 0.00 0.00 35 1016.5
20260905183203 99 65 3.5 7.0 0.00 0.00 0.00 36 1016.4
20260905183004 99 73 3.5 5.2 0.00 0.00 0.00 37 1016.5
20260905182803 99 66 3.5 6.1 0.00 0.00 0.00 38 1016.5
20260905182604 99 43 3.5 6.1 0.00 0.00 0.00 39 1016.6
20260905182403 99 38 3.5 6.1 0.00 0.00 0.00 40 1016.4
20260905182004 99 2 3.5 7.0 0.00 0.00 0.00 37 1016.7
20260905181803 99 2 3.5 7.0 0.00 0.00 0.00 38 1016.8
20260905181603 98 11 3.5 7.0 0.00 0.00 0.00 39 1016.7
20260905181203 97 359 3.5 7.0 0.00 0.00 0.00 41 1016.6
20260905180603 97 334 3.5 5.2 0.00 0.00 0.00 40 1016.8
20260905180404 97 350 3.5 5.2 0.00 0.00 0.00 42 1016.8
20260905180203 97 5 3.5 5.2 0.00 0.00 0.00 43 1016.8
20260905175803 97 51 3.5 5.2 0.00 0.00 0.00 42 1016.9
20260905175604 97 74 4.3 8.7 0.00 0.00 0.00 43 1016.9
20260905175403 97 55 4.3 8.7 0.00 0.00 0.00 42 1016.7
20260905175203 96 80 4.3 8.7 0.00 0.00 0.00 44 1017.0
20260905174803 96 332 4.3 8.7 0.00 0.00 0.00 42 1016.9
20260905174603 96 328 3.5 7.8 0.00 0.00 0.00 42 1016.9
20260905174403 96 316 3.5 7.8 0.00 0.00 0.00 41 1016.9
20260905174003 97 343 4.3 8.7 0.00 0.00 0.00 43 1016.9
20260905173804 96 335 5.2 8.7 0.00 0.00 0.00 43 1017.1
20260905173603 96 336 5.2 8.7 0.00 0.00 0.00 44 1017.2
20260905173403 95 338 5.2 8.7 0.00 0.00 0.00 43 1017.0
20260905173203 94 330 4.3 8.7 0.00 0.00 0.00 44 1017.2
20260905173004 94 331 4.3 8.7 0.00 0.00 0.00 45 1017.1
20260905172803 93 330 4.3 7.8 0.00 0.00 0.00 43 1017.1
20260905172604 94 335 4.3 7.8 0.00 0.00 0.00 43 1017.1
20260905172403 95 347 4.3 7.8 0.00 0.00 0.00 42 1017.2
20260905172203 95 353 4.3 7.8 0.00 0.00 0.00 43 1017.1
20260905172004 96 5 4.3 7.0 0.00 0.00 0.00 43 1017.1
20260905171803 96 33 4.3 7.8 0.00 0.00 0.00 43 1017.2
20260905171604 96 36 4.3 10.4 0.00 0.00 0.00 43 1017.2
20260905170803 94 344 5.2 10.4 0.00 0.00 0.00 46 1017.3
20260905170404 93 319 4.3 9.6 0.00 0.00 0.00 45 1017.3
20260905170204 93 326 3.5 9.6 0.00 0.00 0.00 47 1017.5
20260905170003 93 348 2.6 7.0 0.00 0.00 0.00 46 1017.6
20260905165803 92 33 3.5 7.0 0.00 0.00 0.00 46 1017.4
20260905165604 92 16 4.3 7.0 0.00 0.00 0.00 47 1017.4
20260905165403 92 42 3.5 7.0 0.00 0.00 0.00 49 1017.3
20260905165204 92 66 3.5 6.1 0.00 0.00 0.00 49 1017.4
20260905165003 92 45 4.3 6.1 0.00 0.00 0.00 49 1017.3
20260905164604 92 354 3.5 6.1 0.00 0.00 0.00 47 1017.7
20260905164403 92 6 3.5 6.1 0.00 0.00 0.00 48 1017.5
20260905164203 94 2 3.5 6.1 0.00 0.00 0.00 49 1017.6
20260905164004 92 35 2.6 5.2 0.00 0.00 0.00 49 1017.7
20260905163803 92 36 2.6 6.1 0.00 0.00 0.00 48 1017.6
20260905163603 92 5 3.5 9.6 0.00 0.00 0.00 50 1017.5
20260905163404 92 11 4.3 10.4 0.00 0.00 0.00 50 1017.6
20260905163203 92 5 5.2 10.4 0.00 0.00 0.00 50 1017.6
20260905163004 91 341 5.2 10.4 0.00 0.00 0.00 50 1017.7
20260905162803 91 344 7.0 10.4 0.00 0.00 0.00 50 1017.8
20260905162603 91 342 7.0 10.4 0.00 0.00 0.00 50 1017.8
20260905162404 91 329 6.1 10.4 0.00 0.00 0.00 51 1017.8
20260905162203 90 326 6.1 10.4 0.00 0.00 0.00 51 1017.7
20260905161803 89 339 4.3 10.4 0.00 0.00 0.00 52 1017.8
20260905161403 88 9 3.5 6.1 0.00 0.00 0.00 54 1017.8
20260905161003 88 3 3.5 7.8 0.00 0.00 0.00 60 1017.7
20260905160804 87 358 4.3 9.6 0.00 0.00 0.00 61 1018.0
20260905160603 86 351 4.3 9.6 0.00 0.00 0.00 61 1017.9
20260905160403 85 358 3.5 9.6 0.00 0.00 0.00 62 1017.9
20260905160004 84 358 2.6 9.6 0.00 0.00 0.00 62 1017.8
20260905155603 84 23 1.7 2.6 0.00 0.00 0.00 64 1017.8
20260905155403 84 9 1.7 4.3 0.00 0.00 0.00 63 1017.9
20260905155203 84 12 2.6 4.3 0.00 0.00 0.00 63 1017.9
20260905155004 84 32 2.6 4.3 0.00 0.00 0.00 63 1017.9
20260905154803 84 54 2.6 4.3 0.00 0.00 0.00 65 1018.1
20260905154203 84 84 1.7 4.3 0.00 0.00 0.00 70 1018.0
20260905154003 84 79 0.9 4.3 0.00 0.00 0.00 70 1018.1
20260905153804 84 58 0.9 4.3 0.00 0.00 0.00 70 1018.0
20260905153603 83 311 0.0 0.9 0.00 0.00 0.00 70 1018.0
20260905153204 82 336 0.9 1.7 0.00 0.00 0.00 71 1017.9
20260905153003 82 326 0.9 1.7 0.00 0.00 0.00 71 1018.0
20260905152403 81 229 0.9 1.7 0.00 0.00 0.00 72 1018.2
20260905152203 81 77 0.9 2.6 0.00 0.00 0.00 72 1018.1
20260905152003 80 78 0.9 2.6 0.00 0.00 0.00 73 1018.0
20260905151803 80 74 0.9 2.6 0.00 0.00 0.00 73 1018.1
20260905151603 80 74 0.9 2.6 0.00 0.00 0.00 73 1018.3
20260905151403 80 43 0.9 2.6 0.00 0.00 0.00 73 1017.9
20260905151203 80 27 0.9 2.6 0.00 0.00 0.00 73 1018.1
20260905151004 80 36 0.9 2.6 0.00 0.00 0.00 73 1018.1
20260905150603 80 38 1.7 2.6 0.00 0.00 0.00 73 1018.2
20260905150403 79 49 1.7 2.6 0.00 0.00 0.00 77 1018.3
20260905150203 79 47 1.7 2.6 0.00 0.00 0.00 78 1018.2
20260905145803 79 57 0.9 2.6 0.00 0.00 0.00 78 1018.3
20260905145603 78 69 0.9 1.7 0.00 0.00 0.00 77 1018.3
20260905145403 78 69 0.9 1.7 0.00 0.00 0.00 77 1018.2
20260905145003 78 102 0.9 1.7 0.00 0.00 0.00 77 1018.2
20260905144403 78 93 0.9 1.7 0.00 0.00 0.00 77 1018.4
20260905144203 78 90 0.9 2.6 0.00 0.00 0.00 77 1018.5
20260905144003 78 88 0.9 2.6 0.00 0.00 0.00 77 1018.1
20260905143803 77 88 0.9 2.6 0.00 0.00 0.00 77 1018.2
20260905143604 77 87 0.9 2.6 0.00 0.00 0.00 78 1018.3
20260905143003 77 40 0.9 2.6 0.00 0.00 0.00 78 1018.3
20260905142803 77 40 0.9 2.6 0.00 0.00 0.00 78 1018.4
20260905142603 77 27 0.9 2.6 0.00 0.00 0.00 79 1018.5
20260905142403 77 25 0.9 2.6 0.00 0.00 0.00 79 1018.5
20260905142204 77 8 0.9 2.6 0.00 0.00 0.00 79 1018.4
20260905142004 77 10 0.9 1.7 0.00 0.00 0.00 78 1018.5
20260905141803 77 14 0.9 2.6 0.00 0.00 0.00 79 1018.4
20260905141604 77 33 0.9 2.6 0.00 0.00 0.00 80 1018.3
20260905141403 77 38 1.7 2.6 0.00 0.00 0.00 80 1018.4
20260905141203 77 43 1.7 2.6 0.00 0.00 0.00 81 1018.6
20260905141003 77 43 1.7 2.6 0.00 0.00 0.00 82 1018.5
20260905140403 75 54 0.9 2.6 0.00 0.00 0.00 84 1018.5
20260905140203 75 67 0.9 2.6 0.00 0.00 0.00 84 1018.5
20260905135803 74 92 0.9 1.7 0.00 0.00 0.00 85 1018.5
20260905135603 74 94 0.9 1.7 0.00 0.00 0.00 86 1018.5
20260905135203 74 93 0.9 1.7 0.00 0.00 0.00 87 1018.5
20260905135004 74 94 0.9 1.7 0.00 0.00 0.00 87 1018.6
20260905134804 74 93 0.9 1.7 0.00 0.00 0.00 87 1018.7
20260905134604 73 90 0.9 1.7 0.00 0.00 0.00 87 1018.7
20260905134403 73 105 0.0 1.7 0.00 0.00 0.00 87 1018.6
20260905134203 73 49 0.0 0.9 0.00 0.00 0.00 87 1018.6
20260905134003 73 45 0.9 1.7 0.00 0.00 0.00 88 1018.6
20260905133803 73 46 0.9 1.7 0.00 0.00 0.00 88 1018.7
20260905133403 73 58 0.9 2.6 0.00 0.00 0.00 89 1018.7
20260905133203 73 60 1.7 2.6 0.00 0.00 0.00 90 1018.9
20260905133004 72 61 0.9 2.6 0.00 0.00 0.00 90 1018.7
20260905132803 72 63 0.9 2.6 0.00 0.00 0.00 90 1018.7
20260905132603 72 59 0.9 2.6 0.00 0.00 0.00 90 1018.8
20260905132403 72 62 0.9 1.7 0.00 0.00 0.00 91 1018.9
20260905132203 72 64 0.9 1.7 0.00 0.00 0.00 91 1018.7
20260905132004 72 70 0.9 1.7 0.00 0.00 0.00 92 1018.8
20260905131804 72 73 0.9 1.7 0.00 0.00 0.00 93 1018.8
20260905131403 71 0 0.0 0.0 0.00 0.00 0.00 94 1018.6
20260905131203 71 0 0.0 0.0 0.00 0.00 0.00 94 1018.7
20260905131004 71 0 0.0 0.0 0.00 0.00 0.00 95 1018.9
20260905130803 70 0 0.0 0.0 0.00 0.00 0.00 95 1018.6
20260905130603 70 0 0.0 0.0 0.00 0.00 0.00 97 1018.6
20260905130404 70 0 0.0 0.0 0.00 0.00 0.00 98 1018.8
20260905130204 70 0 0.0 0.0 0.00 0.00 0.00 98 1018.7
20260905130004 70 0 0.0 0.0 0.00 0.00 0.00 98 1018.7
20260905125803 70 0 0.0 0.0 0.00 0.00 0.00 98 1018.6
20260905125603 69 0 0.0 0.0 0.00 0.00 0.00 99 1018.7
20260905125403 69 0 0.0 0.0 0.00 0.00 0.00 99 1018.8
20260905124803 69 0 0.0 0.0 0.00 0.00 0.00 99 1018.7
20260905124403 69 0 0.0 0.0 0.00 0.00 0.00 99 1018.7
20260905124203 69 0 0.0 0.0 0.00 0.00 0.00 99 1018.7
20260905124003 69 0 0.0 0.0 0.00 0.00 0.00 99 1018.6
20260905123603 68 0 0.0 0.0 0.00 0.00 0.00 99 1018.8
20260905123203 68 0 0.0 0.0 0.00 0.00 0.00 99 1018.7
20260905123004 68 0 0.0 0.0 0.00 0.00 0.00 99 1018.7
20260905122803 68 0 0.0 0.0 0.00 0.00 0.00 99 1018.7
20260905122603 68 0 0.0 0.0 0.00 0.00 0.00 99 1018.5
20260905122203 68 0 0.0 0.0 0.00 0.00 0.00 99 1018.6
20260905122003 68 0 0.0 0.0 0.00 0.00 0.00 99 1018.6
20260905121803 68 0 0.0 0.0 0.00 0.00 0.00 99 1018.5
20260905121604 68 0 0.0 0.0 0.00 0.00 0.00 99 1018.5
20260905121203 68 0 0.0 0.0 0.00 0.00 0.00 99 1018.4
20260905121003 68 0 0.0 0.0 0.00 0.00 0.00 99 1018.7
20260905120603 68 0 0.0 0.0 0.00 0.00 0.00 99 1018.4
20260905120203 67 0 0.0 0.0 0.00 0.00 0.00 99 1018.4
20260905115603 67 0 0.0 0.0 0.00 0.00 0.00 99 1018.3
20260905115403 67 0 0.0 0.0 0.00 0.00 0.00 99 1018.4
20260905115203 67 0 0.0 0.0 0.00 0.00 0.00 99 1018.3
20260905115003 67 0 0.0 0.0 0.00 0.00 0.00 99 1018.3
20260905114803 67 0 0.0 0.0 0.00 0.00 0.00 99 1018.2
20260905114603 67 0 0.0 0.0 0.00 0.00 0.00 98 1018.4
20260905114403 67 0 0.0 0.0 0.00 0.00 0.00 98 1018.1
20260905114203 67 0 0.0 0.0 0.00 0.00 0.00 98 1018.1
20260905114004 67 0 0.0 0.0 0.00 0.00 0.00 98 1018.2
20260905113603 67 0 0.0 0.0 0.00 0.00 0.00 98 1018.0
20260905113203 67 0 0.0 0.0 0.00 0.00 0.00 97 1017.9
20260905113004 67 0 0.0 0.0 0.00 0.00 0.00 97 1018.0
20260905112803 67 0 0.0 0.0 0.00 0.00 0.00 97 1018.0
20260905112603 67 0 0.0 0.0 0.00 0.00 0.00 97 1017.9
20260905112204 67 0 0.0 0.0 0.00 0.00 0.00 97 1017.8
20260905112004 67 0 0.0 0.0 0.00 0.00 0.00 97 1017.8
20260905111803 67 0 0.0 0.0 0.00 0.00 0.00 96 1017.7
20260905111603 67 0 0.0 0.0 0.00 0.00 0.00 96 1017.5
20260905111403 67 0 0.0 0.0 0.00 0.00 0.00 96 1017.7
20260905111003 67 0 0.0 0.0 0.00 0.00 0.00 96 1017.7
20260905110804 68 0 0.0 0.0 0.00 0.00 0.00 96 1017.7
20260905110604 68 0 0.0 0.0 0.00 0.00 0.00 96 1017.7
20260905110403 68 0 0.0 0.0 0.00 0.00 0.00 96 1017.7
20260905110203 68 0 0.0 0.0 0.00 0.00 0.00 96 1017.7
20260905110010 68 0 0.0 0.0 0.00 0.00 0.00 96 1017.6
20260905105803 68 0 0.0 0.0 0.00 0.00 0.00 96 1017.7
20260905105603 68 0 0.0 0.0 0.00 0.00 0.00 96 1017.5
20260905105403 68 0 0.0 0.0 0.00 0.00 0.00 95 1017.6